Tracking 25995 objects as of 20-Aug-2022
HD Live streaming from Space Station
objects crossing your sky now

XJS G

Track XJS G now!
10-day predictions


NORAD ID: 45611
Int'l Code: 2020-032A
Perigee: 454.6 km
Apogee: 468.5 km
Inclination: 35.0 °
Period: 93.7 minutes
Semi major axis: 6832 km
RCS: Unknown
Launch date: May 29, 2020
Source: People's Republic of China (PRC)
Launch site: Xichang Space Center, China (XSC)
aabbcc
Your satellite tracking list
Your tracking list is empty




NASA's NSSDC Master Catalog

Two Line Element Set (TLE):
1 45611U 20032A   22231.83542334  .00009777  00000-0  26155-3 0  9998
2 45611  35.0347  41.5093 0010195 301.6873  58.2853 15.37202398124487
Source of the keplerian elements: AFSPC